Year,Month,Day,Hour,Minute,Value (Times are PST for temperature in C)
2014,04,14,00,00,4.30
2014,04,14,00,01,4.30
2014,04,14,00,02,4.30
2014,04,14,00,03,4.30
2014,04,14,00,04,4.30
2014,04,14,00,05,4.30
2014,04,14,00,06,4.30
2014,04,14,00,07,4.30
2014,04,14,00,08,4.30
2014,04,14,00,09,4.30
2014,04,14,00,10,4.30
2014,04,14,00,11,4.30
2014,04,14,00,12,4.40
2014,04,14,00,13,4.40
2014,04,14,00,14,4.40
2014,04,14,00,15,4.40
2014,04,14,00,16,4.40
2014,04,14,00,17,4.40
2014,04,14,00,18,4.40
2014,04,14,00,19,4.40
2014,04,14,00,20,4.40
2014,04,14,00,21,4.40
2014,04,14,00,22,4.40
2014,04,14,00,23,4.40
2014,04,14,00,24,4.40
2014,04,14,00,25,4.40
2014,04,14,00,26,4.40
2014,04,14,00,27,4.40
2014,04,14,00,28,4.30
2014,04,14,00,29,4.30
2014,04,14,00,30,4.30
2014,04,14,00,31,4.30
2014,04,14,00,32,4.20
2014,04,14,00,33,4.20
2014,04,14,00,34,4.20
2014,04,14,00,35,4.20
2014,04,14,00,36,4.10
2014,04,14,00,37,4.10
2014,04,14,00,38,4.10
2014,04,14,00,39,4.10
2014,04,14,00,40,4.10
2014,04,14,00,41,4.10
2014,04,14,00,42,4.10
2014,04,14,00,43,4.10
2014,04,14,00,44,4.10
2014,04,14,00,45,4.10
2014,04,14,00,46,4.00
2014,04,14,00,47,4.00
2014,04,14,00,48,4.00
2014,04,14,00,49,4.00
2014,04,14,00,50,4.00
2014,04,14,00,51,3.90
2014,04,14,00,52,3.90
2014,04,14,00,53,3.90
2014,04,14,00,54,3.90
2014,04,14,00,55,3.80
2014,04,14,00,56,3.80
2014,04,14,00,57,3.80
2014,04,14,00,58,3.80
2014,04,14,00,59,3.70
2014,04,14,01,00,3.70
2014,04,14,01,01,3.70
2014,04,14,01,02,3.70
2014,04,14,01,03,3.60
2014,04,14,01,04,3.60
2014,04,14,01,05,3.60
2014,04,14,01,06,3.50
2014,04,14,01,07,3.50
2014,04,14,01,08,3.50
2014,04,14,01,09,3.50
2014,04,14,01,10,3.40
2014,04,14,01,11,3.40
2014,04,14,01,12,3.40
2014,04,14,01,13,3.40
2014,04,14,01,14,3.40
2014,04,14,01,15,3.40
2014,04,14,01,16,3.30
2014,04,14,01,17,3.30
2014,04,14,01,18,3.30
2014,04,14,01,19,3.30
2014,04,14,01,20,3.30
2014,04,14,01,21,3.30
2014,04,14,01,22,3.30
2014,04,14,01,23,3.30
2014,04,14,01,24,3.20
2014,04,14,01,25,3.20
2014,04,14,01,26,3.20
2014,04,14,01,27,3.20
2014,04,14,01,28,3.20
2014,04,14,01,29,3.20
2014,04,14,01,30,3.20
2014,04,14,01,31,3.20
2014,04,14,01,32,3.10
2014,04,14,01,33,3.10
2014,04,14,01,34,3.10
2014,04,14,01,35,3.10
2014,04,14,01,36,3.10
2014,04,14,01,37,3.10
2014,04,14,01,38,3.10
2014,04,14,01,39,3.10
2014,04,14,01,40,3.10
2014,04,14,01,41,3.10
2014,04,14,01,42,3.10
2014,04,14,01,43,3.10
2014,04,14,01,44,3.10
2014,04,14,01,45,3.10
2014,04,14,01,46,3.10
2014,04,14,01,47,3.10
2014,04,14,01,48,3.10
2014,04,14,01,49,3.10
2014,04,14,01,50,3.10
2014,04,14,01,51,3.20
2014,04,14,01,52,3.20
2014,04,14,01,53,3.20
2014,04,14,01,54,3.20
2014,04,14,01,55,3.20
2014,04,14,01,56,3.20
2014,04,14,01,57,3.20
2014,04,14,01,58,3.10
2014,04,14,01,59,3.10
2014,04,14,02,00,3.10
2014,04,14,02,01,3.10
2014,04,14,02,02,3.10
2014,04,14,02,03,3.10
2014,04,14,02,04,3.00
2014,04,14,02,05,3.00
2014,04,14,02,06,3.00
2014,04,14,02,07,3.00
2014,04,14,02,08,2.90
2014,04,14,02,09,2.90
2014,04,14,02,10,2.90
2014,04,14,02,11,2.90
2014,04,14,02,12,2.90
2014,04,14,02,13,2.90
2014,04,14,02,14,2.90
2014,04,14,02,15,2.80
2014,04,14,02,16,2.80
2014,04,14,02,17,2.80
2014,04,14,02,18,2.80
2014,04,14,02,19,2.80
2014,04,14,02,20,2.80
2014,04,14,02,21,2.80
2014,04,14,02,22,2.80
2014,04,14,02,23,2.80
2014,04,14,02,24,2.80
2014,04,14,02,25,2.80
2014,04,14,02,26,2.70
2014,04,14,02,27,2.70
2014,04,14,02,28,2.70
2014,04,14,02,29,2.70
2014,04,14,02,30,2.70
2014,04,14,02,31,2.70
2014,04,14,02,32,2.70
2014,04,14,02,33,2.70
2014,04,14,02,34,2.80
2014,04,14,02,35,2.80
2014,04,14,02,36,2.80
2014,04,14,02,37,2.80
2014,04,14,02,38,2.80
2014,04,14,02,39,2.80
2014,04,14,02,40,2.80
2014,04,14,02,41,2.80
2014,04,14,02,42,2.80
2014,04,14,02,43,2.80
2014,04,14,02,44,2.80
2014,04,14,02,45,2.70
2014,04,14,02,46,2.70
2014,04,14,02,47,2.70
2014,04,14,02,48,2.70
2014,04,14,02,49,2.60
2014,04,14,02,50,2.60
2014,04,14,02,51,2.60
2014,04,14,02,52,2.60
2014,04,14,02,53,2.60
2014,04,14,02,54,2.50
2014,04,14,02,55,2.50
2014,04,14,02,56,2.50
2014,04,14,02,57,2.50
2014,04,14,02,58,2.40
2014,04,14,02,59,2.40
2014,04,14,03,00,2.40
2014,04,14,03,01,2.40
2014,04,14,03,02,2.40
2014,04,14,03,06,2.30
2014,04,14,03,07,2.30
2014,04,14,03,08,2.30
2014,04,14,03,09,2.30
2014,04,14,03,10,2.30
2014,04,14,03,11,2.30
2014,04,14,03,12,2.30
2014,04,14,03,13,2.30
2014,04,14,03,14,2.30
2014,04,14,03,15,2.30
2014,04,14,03,16,2.30
2014,04,14,03,17,2.20
2014,04,14,03,18,2.20
2014,04,14,03,19,2.20
2014,04,14,03,20,2.20
2014,04,14,03,21,2.20
2014,04,14,03,22,2.20
2014,04,14,03,23,2.20
2014,04,14,03,24,2.20
2014,04,14,03,25,2.20
2014,04,14,03,26,2.20
2014,04,14,03,27,2.20
2014,04,14,03,28,2.10
2014,04,14,03,29,2.10
2014,04,14,03,30,2.10
2014,04,14,03,31,2.10
2014,04,14,03,32,2.10
2014,04,14,03,33,2.10
2014,04,14,03,34,2.10
2014,04,14,03,35,2.00
2014,04,14,03,36,2.00
2014,04,14,03,37,2.00
2014,04,14,03,38,2.00
2014,04,14,03,39,2.00
2014,04,14,03,40,2.00
2014,04,14,03,41,2.00
2014,04,14,03,42,2.00
2014,04,14,03,43,2.00
2014,04,14,03,44,2.00
2014,04,14,03,45,2.00
2014,04,14,03,46,2.10
2014,04,14,03,47,2.10
2014,04,14,03,48,2.10
2014,04,14,03,49,2.10
2014,04,14,03,50,2.10
2014,04,14,03,51,2.10
2014,04,14,03,52,2.10
2014,04,14,03,53,2.10
2014,04,14,03,54,2.10
2014,04,14,03,55,2.10
2014,04,14,03,56,2.10
2014,04,14,03,57,2.10
2014,04,14,03,58,2.10
2014,04,14,03,59,2.00
2014,04,14,04,00,2.00
2014,04,14,04,01,2.00
2014,04,14,04,02,2.00
2014,04,14,04,03,2.00
2014,04,14,04,04,2.00
2014,04,14,04,05,2.00
2014,04,14,04,06,2.00
2014,04,14,04,07,1.90
2014,04,14,04,08,1.90
2014,04,14,04,09,1.90
2014,04,14,04,10,1.90
2014,04,14,04,11,1.90
2014,04,14,04,12,1.90
2014,04,14,04,13,1.90
2014,04,14,04,14,1.90
2014,04,14,04,15,1.90
2014,04,14,04,16,1.90
2014,04,14,04,17,1.90
2014,04,14,04,18,1.80
2014,04,14,04,19,1.80
2014,04,14,04,20,1.80
2014,04,14,04,21,1.80
2014,04,14,04,22,1.80
2014,04,14,04,23,1.80
2014,04,14,04,24,1.80
2014,04,14,04,25,1.80
2014,04,14,04,26,1.80
2014,04,14,04,27,1.80
2014,04,14,04,28,1.80
2014,04,14,04,29,1.80
2014,04,14,04,30,1.80
2014,04,14,04,31,1.70
2014,04,14,04,32,1.70
2014,04,14,04,33,1.70
2014,04,14,04,34,1.70
2014,04,14,04,35,1.70
2014,04,14,04,36,1.70
2014,04,14,04,37,1.70
2014,04,14,04,38,1.70
2014,04,14,04,39,1.70
2014,04,14,04,40,1.70
2014,04,14,04,41,1.70
2014,04,14,04,42,1.70
2014,04,14,04,43,1.70
2014,04,14,04,44,1.70
2014,04,14,04,45,1.70
2014,04,14,04,46,1.70
2014,04,14,04,47,1.70
2014,04,14,04,48,1.70
2014,04,14,04,49,1.70
2014,04,14,04,50,1.70
2014,04,14,04,51,1.70
2014,04,14,04,52,1.60
2014,04,14,04,53,1.60
2014,04,14,04,54,1.60
2014,04,14,04,55,1.60
2014,04,14,04,56,1.60
2014,04,14,04,57,1.60
2014,04,14,04,58,1.60
2014,04,14,04,59,1.60
2014,04,14,05,00,1.60
2014,04,14,05,01,1.60
2014,04,14,05,02,1.60
2014,04,14,05,03,1.60
2014,04,14,05,04,1.60
2014,04,14,05,05,1.60
2014,04,14,05,06,1.60
2014,04,14,05,07,1.60
2014,04,14,05,08,1.60
2014,04,14,05,09,1.60
2014,04,14,05,10,1.60
2014,04,14,05,11,1.60
2014,04,14,05,12,1.60
2014,04,14,05,13,1.60
2014,04,14,05,14,1.60
2014,04,14,05,15,1.60
2014,04,14,05,16,1.60
2014,04,14,05,17,1.60
2014,04,14,05,18,1.60
2014,04,14,05,19,1.60
2014,04,14,05,20,1.60
2014,04,14,05,21,1.60
2014,04,14,05,22,1.60
2014,04,14,05,23,1.60
2014,04,14,05,24,1.60
2014,04,14,05,25,1.60
2014,04,14,05,26,1.60
2014,04,14,05,27,1.60
2014,04,14,05,28,1.50
2014,04,14,05,29,1.50
2014,04,14,05,30,1.50
2014,04,14,05,31,1.50
2014,04,14,05,32,1.50
2014,04,14,05,33,1.40
2014,04,14,05,34,1.40
2014,04,14,05,35,1.40
2014,04,14,05,36,1.40
2014,04,14,05,37,1.40
2014,04,14,05,38,1.40
2014,04,14,05,39,1.40
2014,04,14,05,40,1.40
2014,04,14,05,41,1.40
2014,04,14,05,42,1.40
2014,04,14,05,43,1.40
2014,04,14,05,44,1.40
2014,04,14,05,45,1.40
2014,04,14,05,46,1.40
2014,04,14,05,47,1.40
2014,04,14,05,48,1.40
2014,04,14,05,49,1.40
2014,04,14,05,50,1.40
2014,04,14,05,51,1.40
2014,04,14,05,52,1.40
2014,04,14,05,53,1.40
2014,04,14,05,54,1.40
2014,04,14,05,55,1.40
2014,04,14,05,56,1.40
2014,04,14,05,57,1.40
2014,04,14,05,58,1.40
2014,04,14,05,59,1.40
2014,04,14,06,00,1.40
2014,04,14,06,01,1.40
2014,04,14,06,02,1.40
2014,04,14,06,03,1.40
2014,04,14,06,04,1.40
2014,04,14,06,05,1.40
2014,04,14,06,06,1.40
2014,04,14,06,07,1.40
2014,04,14,06,08,1.40
2014,04,14,06,09,1.40
2014,04,14,06,10,1.40
2014,04,14,06,11,1.40
2014,04,14,06,12,1.40
2014,04,14,06,13,1.40
2014,04,14,06,14,1.40
2014,04,14,06,15,1.40
2014,04,14,06,16,1.30
2014,04,14,06,17,1.30
2014,04,14,06,18,1.30
2014,04,14,06,19,1.30
2014,04,14,06,20,1.30
2014,04,14,06,21,1.30
2014,04,14,06,22,1.30
2014,04,14,06,23,1.30
2014,04,14,06,24,1.30
2014,04,14,06,25,1.30
2014,04,14,06,26,1.30
2014,04,14,06,27,1.30
2014,04,14,06,28,1.30
2014,04,14,06,29,1.30
2014,04,14,06,30,1.30
2014,04,14,06,31,1.30
2014,04,14,06,32,1.30
2014,04,14,06,33,1.30
2014,04,14,06,34,1.30
2014,04,14,06,35,1.30
2014,04,14,06,36,1.30
2014,04,14,06,37,1.30
2014,04,14,06,38,1.30
2014,04,14,06,39,1.30
2014,04,14,06,40,1.30
2014,04,14,06,41,1.30
2014,04,14,06,42,1.30
2014,04,14,06,43,1.30
2014,04,14,06,44,1.30
2014,04,14,06,45,1.30
2014,04,14,06,46,1.30
2014,04,14,06,47,1.30
2014,04,14,06,48,1.30
2014,04,14,06,49,1.30
2014,04,14,06,50,1.30
2014,04,14,06,51,1.30
2014,04,14,06,52,1.30
2014,04,14,06,53,1.40
2014,04,14,06,54,1.40
2014,04,14,06,55,1.40
2014,04,14,06,56,1.40
2014,04,14,06,57,1.40
2014,04,14,06,58,1.40
2014,04,14,06,59,1.40
2014,04,14,07,00,1.50
2014,04,14,07,01,1.50
2014,04,14,07,02,1.50
2014,04,14,07,03,1.50
2014,04,14,07,04,1.50
2014,04,14,07,05,1.60
2014,04,14,07,06,1.60
2014,04,14,07,07,1.60
2014,04,14,07,08,1.60
2014,04,14,07,09,1.60
2014,04,14,07,10,1.60
2014,04,14,07,11,1.60
2014,04,14,07,12,1.70
2014,04,14,07,13,1.70
2014,04,14,07,14,1.70
2014,04,14,07,15,1.70
2014,04,14,07,16,1.70
2014,04,14,07,17,1.70
2014,04,14,07,18,1.70
2014,04,14,07,19,1.70
2014,04,14,07,20,1.70
2014,04,14,07,21,1.80
2014,04,14,07,22,1.80
2014,04,14,07,23,1.80
2014,04,14,07,24,1.80
2014,04,14,07,25,1.80
2014,04,14,07,26,1.80
2014,04,14,07,27,1.90
2014,04,14,07,28,1.90
2014,04,14,07,29,1.90
2014,04,14,07,30,1.90
2014,04,14,07,31,1.90
2014,04,14,07,32,2.00
2014,04,14,07,33,2.00
2014,04,14,07,34,2.00
2014,04,14,07,35,2.10
2014,04,14,07,36,2.10
2014,04,14,07,37,2.10
2014,04,14,07,38,2.10
2014,04,14,07,39,2.20
2014,04,14,07,40,2.20
2014,04,14,07,41,2.20
2014,04,14,07,42,2.20
2014,04,14,07,43,2.30
2014,04,14,07,44,2.30
2014,04,14,07,45,2.30
2014,04,14,07,46,2.30
2014,04,14,07,47,2.40
2014,04,14,07,48,2.40
2014,04,14,07,49,2.40
2014,04,14,07,50,2.40
2014,04,14,07,51,2.50
2014,04,14,07,52,2.50
2014,04,14,07,53,2.60
2014,04,14,07,54,2.60
2014,04,14,07,55,2.60
2014,04,14,07,56,2.70
2014,04,14,07,57,2.70
2014,04,14,07,58,2.70
2014,04,14,07,59,2.80
2014,04,14,08,00,2.80
2014,04,14,08,01,2.80
2014,04,14,08,02,2.90
2014,04,14,08,03,2.90
2014,04,14,08,04,2.90
2014,04,14,08,05,3.00
2014,04,14,08,06,3.00
2014,04,14,08,07,3.10
2014,04,14,08,08,3.10
2014,04,14,08,09,3.10
2014,04,14,08,10,3.20
2014,04,14,08,11,3.20
2014,04,14,08,12,3.30
2014,04,14,08,13,3.30
2014,04,14,08,14,3.40
2014,04,14,08,15,3.40
2014,04,14,08,16,3.50
2014,04,14,08,17,3.50
2014,04,14,08,18,3.50
2014,04,14,08,19,3.60
2014,04,14,08,20,3.60
2014,04,14,08,21,3.70
2014,04,14,08,22,3.70
2014,04,14,08,23,3.70
2014,04,14,08,24,3.80
2014,04,14,08,25,3.80
2014,04,14,08,26,3.80
2014,04,14,08,27,3.90
2014,04,14,08,28,3.90
2014,04,14,08,29,3.90
2014,04,14,08,30,4.00
2014,04,14,08,31,4.00
2014,04,14,08,32,4.00
2014,04,14,08,33,4.10
2014,04,14,08,34,4.10
2014,04,14,08,35,4.20
2014,04,14,08,36,4.20
2014,04,14,08,37,4.20
2014,04,14,08,38,4.30
2014,04,14,08,39,4.30
2014,04,14,08,40,4.30
2014,04,14,08,41,4.40
2014,04,14,08,42,4.40
2014,04,14,08,43,4.50
2014,04,14,08,44,4.50
2014,04,14,08,45,4.60
2014,04,14,08,46,4.60
2014,04,14,08,47,4.70
2014,04,14,08,48,4.70
2014,04,14,08,49,4.80
2014,04,14,08,50,4.80
2014,04,14,08,51,4.80
2014,04,14,08,52,4.90
2014,04,14,08,53,4.90
2014,04,14,08,54,5.00
2014,04,14,08,55,5.00
2014,04,14,08,56,5.10
2014,04,14,08,57,5.10
2014,04,14,08,58,5.10
2014,04,14,08,59,5.20
2014,04,14,09,00,5.20
2014,04,14,09,01,5.30
2014,04,14,09,02,5.30
2014,04,14,09,03,5.40
2014,04,14,09,04,5.40
2014,04,14,09,05,5.40
2014,04,14,09,06,5.50
2014,04,14,09,07,5.50
2014,04,14,09,08,5.50
2014,04,14,09,09,5.60
2014,04,14,09,10,5.60
2014,04,14,09,11,5.60
2014,04,14,09,12,5.70
2014,04,14,09,13,5.70
2014,04,14,09,14,5.80
2014,04,14,09,15,5.80
2014,04,14,09,16,5.80
2014,04,14,09,17,5.90
2014,04,14,09,18,5.90
2014,04,14,09,19,6.00
2014,04,14,09,20,6.00
2014,04,14,09,21,6.10
2014,04,14,09,22,6.10
2014,04,14,09,23,6.10
2014,04,14,09,24,6.20
2014,04,14,09,25,6.30
2014,04,14,09,26,6.30
2014,04,14,09,27,6.40
2014,04,14,09,28,6.40
2014,04,14,09,29,6.50
2014,04,14,09,30,6.60
2014,04,14,09,31,6.60
2014,04,14,09,32,6.70
2014,04,14,09,33,6.70
2014,04,14,09,34,6.80
2014,04,14,09,35,6.90
2014,04,14,09,36,6.90
2014,04,14,09,37,7.00
2014,04,14,09,38,7.00
2014,04,14,09,39,7.10
2014,04,14,09,40,7.10
2014,04,14,09,41,7.20
2014,04,14,09,42,7.20
2014,04,14,09,43,7.20
2014,04,14,09,44,7.20
2014,04,14,09,45,7.30
2014,04,14,09,46,7.30
2014,04,14,09,47,7.30
2014,04,14,09,48,7.30
2014,04,14,09,49,7.40
2014,04,14,09,50,7.40
2014,04,14,09,51,7.40
2014,04,14,09,52,7.50
2014,04,14,09,53,7.50
2014,04,14,09,54,7.60
2014,04,14,09,55,7.60
2014,04,14,09,56,7.60
2014,04,14,09,57,7.70
2014,04,14,09,58,7.70
2014,04,14,09,59,7.70
2014,04,14,10,00,7.70
2014,04,14,10,01,7.80
2014,04,14,10,02,7.80
2014,04,14,10,03,7.80
2014,04,14,10,04,7.80
2014,04,14,10,05,7.90
2014,04,14,10,06,7.90
2014,04,14,10,07,7.90
2014,04,14,10,08,8.00
2014,04,14,10,09,8.00
2014,04,14,10,10,8.00
2014,04,14,10,11,8.10
2014,04,14,10,12,8.10
2014,04,14,10,13,8.10
2014,04,14,10,14,8.10
2014,04,14,10,15,8.20
2014,04,14,10,16,8.20
2014,04,14,10,17,8.20
2014,04,14,10,18,8.20
2014,04,14,10,19,8.20
2014,04,14,10,20,8.20
2014,04,14,10,21,8.30
2014,04,14,10,22,8.30
2014,04,14,10,23,8.30
2014,04,14,10,24,8.30
2014,04,14,10,25,8.40
2014,04,14,10,26,8.40
2014,04,14,10,27,8.40
2014,04,14,10,28,8.50
2014,04,14,10,29,8.50
2014,04,14,10,30,8.60
2014,04,14,10,31,8.60
2014,04,14,10,32,8.60
2014,04,14,10,33,8.70
2014,04,14,10,34,8.80
2014,04,14,10,35,8.90
2014,04,14,10,36,9.00
2014,04,14,10,37,9.10
2014,04,14,10,38,9.10
2014,04,14,10,39,9.20
2014,04,14,10,40,9.30
2014,04,14,10,41,9.30
2014,04,14,10,42,9.40
2014,04,14,10,43,9.50
2014,04,14,10,44,9.50
2014,04,14,10,45,9.60
2014,04,14,10,46,9.60
2014,04,14,10,47,9.60
2014,04,14,10,48,9.70
2014,04,14,10,49,9.80
2014,04,14,10,50,9.80
2014,04,14,10,51,9.90
2014,04,14,10,52,10.00
2014,04,14,10,53,10.10
2014,04,14,10,54,10.20
2014,04,14,10,55,10.30
2014,04,14,10,56,10.40
2014,04,14,10,57,10.50
2014,04,14,10,58,10.60
2014,04,14,10,59,10.60
2014,04,14,11,00,10.70
2014,04,14,11,01,10.80
2014,04,14,11,02,10.90
2014,04,14,11,03,11.00
2014,04,14,11,04,11.10
2014,04,14,11,05,11.20
2014,04,14,11,06,11.30
2014,04,14,11,07,11.40
2014,04,14,11,08,11.50
2014,04,14,11,09,11.60
2014,04,14,11,10,11.70
2014,04,14,11,11,11.70
2014,04,14,11,12,11.80
2014,04,14,11,13,11.80
2014,04,14,11,14,11.90
2014,04,14,11,15,12.00
2014,04,14,11,16,12.00
2014,04,14,11,17,12.10
2014,04,14,11,18,12.20
2014,04,14,11,19,12.20
2014,04,14,11,20,12.30
2014,04,14,11,21,12.30
2014,04,14,11,22,12.30
2014,04,14,11,23,12.40
2014,04,14,11,24,12.50
2014,04,14,11,25,12.50
2014,04,14,11,26,12.60
2014,04,14,11,27,12.60
2014,04,14,11,28,12.70
2014,04,14,11,29,12.70
2014,04,14,11,30,12.80
2014,04,14,11,31,12.80
2014,04,14,11,32,12.90
2014,04,14,11,33,12.90
2014,04,14,11,34,13.00
2014,04,14,11,35,13.00
2014,04,14,11,36,13.10
2014,04,14,11,37,13.10
2014,04,14,11,38,13.20
2014,04,14,11,39,13.20
2014,04,14,11,40,13.20
2014,04,14,11,41,13.20
2014,04,14,11,42,13.30
2014,04,14,11,43,13.30
2014,04,14,11,44,13.30
2014,04,14,11,45,13.30
2014,04,14,11,46,13.40
2014,04,14,11,47,13.40
2014,04,14,11,48,13.40
2014,04,14,11,49,13.40
2014,04,14,11,50,13.40
2014,04,14,11,51,13.40
2014,04,14,11,52,13.40
2014,04,14,11,53,13.40
2014,04,14,11,54,13.40
2014,04,14,11,55,13.50
2014,04,14,11,56,13.50
2014,04,14,11,57,13.50
2014,04,14,11,58,13.50
2014,04,14,11,59,13.50
2014,04,14,12,00,13.50
2014,04,14,12,01,13.50
2014,04,14,12,02,13.50
2014,04,14,12,03,13.50
2014,04,14,12,04,13.50
2014,04,14,12,05,13.50
2014,04,14,12,06,13.50
2014,04,14,12,07,13.50
2014,04,14,12,08,13.40
2014,04,14,12,09,13.40
2014,04,14,12,10,13.30
2014,04,14,12,11,13.30
2014,04,14,12,12,13.30
2014,04,14,12,13,13.30
2014,04,14,12,14,13.30
2014,04,14,12,15,13.30
2014,04,14,12,16,13.20
2014,04,14,12,17,13.20
2014,04,14,12,18,13.20
2014,04,14,12,19,13.20
2014,04,14,12,20,13.20
2014,04,14,12,21,13.20
2014,04,14,12,22,13.20
2014,04,14,12,23,13.30
2014,04,14,12,24,13.30
2014,04,14,12,25,13.30
2014,04,14,12,26,13.30
2014,04,14,12,27,13.40
2014,04,14,12,28,13.40
2014,04,14,12,29,13.50
2014,04,14,12,30,13.50
2014,04,14,12,31,13.60
2014,04,14,12,32,13.60
2014,04,14,12,33,13.70
2014,04,14,12,34,13.80
2014,04,14,12,35,13.80
2014,04,14,12,36,13.90
2014,04,14,12,37,14.00
2014,04,14,12,38,14.10
2014,04,14,12,39,14.10
2014,04,14,12,40,14.20
2014,04,14,12,41,14.20
2014,04,14,12,42,14.30
2014,04,14,12,43,14.30
2014,04,14,12,44,14.40
2014,04,14,12,45,14.40
2014,04,14,12,46,14.50
2014,04,14,12,47,14.60
2014,04,14,12,48,14.70
2014,04,14,12,49,14.70
2014,04,14,12,50,14.80
2014,04,14,12,51,14.80
2014,04,14,12,52,14.90
2014,04,14,12,53,14.90
2014,04,14,12,54,15.00
2014,04,14,12,55,15.00
2014,04,14,12,56,15.00
2014,04,14,12,57,15.00
2014,04,14,12,58,15.00
2014,04,14,12,59,15.00
2014,04,14,13,00,15.10
2014,04,14,13,01,15.20
2014,04,14,13,02,15.30
2014,04,14,13,03,15.30
2014,04,14,13,04,15.40
2014,04,14,13,05,15.40
2014,04,14,13,06,15.50
2014,04,14,13,07,15.60
2014,04,14,13,08,15.70
2014,04,14,13,09,15.70
2014,04,14,13,10,15.80
2014,04,14,13,11,15.80
2014,04,14,13,12,15.90
2014,04,14,13,13,16.00
2014,04,14,13,14,16.00
2014,04,14,13,15,16.10
2014,04,14,13,16,16.20
2014,04,14,13,17,16.20
2014,04,14,13,18,16.30
2014,04,14,13,19,16.40
2014,04,14,13,20,16.50
2014,04,14,13,21,16.50
2014,04,14,13,22,16.60
2014,04,14,13,23,16.70
2014,04,14,13,24,16.80
2014,04,14,13,25,16.80
2014,04,14,13,26,16.90
2014,04,14,13,27,16.90
2014,04,14,13,28,17.00
2014,04,14,13,29,17.10
2014,04,14,13,30,17.20
2014,04,14,13,31,17.20
2014,04,14,13,32,17.30
2014,04,14,13,33,17.30
2014,04,14,13,34,17.40
2014,04,14,13,35,17.40
2014,04,14,13,36,17.40
2014,04,14,13,37,17.40
2014,04,14,13,38,17.50
2014,04,14,13,39,17.50
2014,04,14,13,40,17.50
2014,04,14,13,41,17.60
2014,04,14,13,42,17.60
2014,04,14,13,43,17.70
2014,04,14,13,44,17.70
2014,04,14,13,45,17.80
2014,04,14,13,46,17.90
2014,04,14,13,47,18.00
2014,04,14,13,48,18.10
2014,04,14,13,49,18.10
2014,04,14,13,50,18.10
2014,04,14,13,51,18.20
2014,04,14,13,52,18.20
2014,04,14,13,53,18.10
2014,04,14,13,54,18.10
2014,04,14,13,55,18.00
2014,04,14,13,56,17.90
2014,04,14,13,57,17.80
2014,04,14,13,58,17.80
2014,04,14,13,59,17.80
2014,04,14,14,00,17.80
2014,04,14,14,01,17.80
2014,04,14,14,02,17.80
2014,04,14,14,03,17.80
2014,04,14,14,04,17.80
2014,04,14,14,05,17.90
2014,04,14,14,06,17.90
2014,04,14,14,07,18.00
2014,04,14,14,08,18.00
2014,04,14,14,09,18.00
2014,04,14,14,10,18.10
2014,04,14,14,11,18.10
2014,04,14,14,12,18.10
2014,04,14,14,13,18.10
2014,04,14,14,14,18.10
2014,04,14,14,15,18.20
2014,04,14,14,16,18.20
2014,04,14,14,17,18.20
2014,04,14,14,18,18.30
2014,04,14,14,19,18.30
2014,04,14,14,20,18.30
2014,04,14,14,21,18.20
2014,04,14,14,22,18.20
2014,04,14,14,23,18.10
2014,04,14,14,24,18.10
2014,04,14,14,25,18.00
2014,04,14,14,26,18.00
2014,04,14,14,27,18.00
2014,04,14,14,28,17.90
2014,04,14,14,29,17.90
2014,04,14,14,30,17.90
2014,04,14,14,31,17.80
2014,04,14,14,32,17.80
2014,04,14,14,33,17.80
2014,04,14,14,34,17.80
2014,04,14,14,35,17.80
2014,04,14,14,36,17.80
2014,04,14,14,37,17.80
2014,04,14,14,38,17.80
2014,04,14,14,39,17.80
2014,04,14,14,40,17.90
2014,04,14,14,41,17.90
2014,04,14,14,42,18.00
2014,04,14,14,43,18.10
2014,04,14,14,44,18.20
2014,04,14,14,45,18.20
2014,04,14,14,46,18.30
2014,04,14,14,47,18.30
2014,04,14,14,48,18.30
2014,04,14,14,49,18.40
2014,04,14,14,50,18.40
2014,04,14,14,51,18.50
2014,04,14,14,52,18.60
2014,04,14,14,53,18.60
2014,04,14,14,54,18.60
2014,04,14,14,55,18.70
2014,04,14,14,56,18.70
2014,04,14,14,57,18.70
2014,04,14,14,58,18.70
2014,04,14,14,59,18.70
2014,04,14,15,00,18.70
2014,04,14,15,01,18.70
2014,04,14,15,02,18.70
2014,04,14,15,03,18.70
2014,04,14,15,04,18.70
2014,04,14,15,05,18.80
2014,04,14,15,06,18.80
2014,04,14,15,07,18.80
2014,04,14,15,08,18.80
2014,04,14,15,09,18.90
2014,04,14,15,10,18.90
2014,04,14,15,11,18.90
2014,04,14,15,12,19.00
2014,04,14,15,13,19.00
2014,04,14,15,14,19.10
2014,04,14,15,15,19.20
2014,04,14,15,16,19.20
2014,04,14,15,17,19.20
2014,04,14,15,18,19.30
2014,04,14,15,19,19.30
2014,04,14,15,20,19.40
2014,04,14,15,21,19.40
2014,04,14,15,22,19.40
2014,04,14,15,23,19.30
2014,04,14,15,24,19.30
2014,04,14,15,25,19.40
2014,04,14,15,26,19.50
2014,04,14,15,27,19.50
2014,04,14,15,28,19.60
2014,04,14,15,29,19.60
2014,04,14,15,30,19.60
2014,04,14,15,31,19.60
2014,04,14,15,32,19.60
2014,04,14,15,33,19.60
2014,04,14,15,34,19.60
2014,04,14,15,35,19.60
2014,04,14,15,36,19.60
2014,04,14,15,37,19.60
2014,04,14,15,38,19.60
2014,04,14,15,39,19.50
2014,04,14,15,40,19.50
2014,04,14,15,41,19.40
2014,04,14,15,42,19.30
2014,04,14,15,43,19.20
2014,04,14,15,44,19.10
2014,04,14,15,45,19.00
2014,04,14,15,46,18.90
2014,04,14,15,47,18.80
2014,04,14,15,48,18.70
2014,04,14,15,49,18.60
2014,04,14,15,50,18.60
2014,04,14,15,51,18.50
2014,04,14,15,52,18.40
2014,04,14,15,53,18.40
2014,04,14,15,54,18.30
2014,04,14,15,55,18.20
2014,04,14,15,56,18.20
2014,04,14,15,57,18.10
2014,04,14,15,58,18.00
2014,04,14,15,59,17.90
2014,04,14,16,00,17.80
2014,04,14,16,01,17.70
2014,04,14,16,02,17.70
2014,04,14,16,03,17.60
2014,04,14,16,04,17.60
2014,04,14,16,05,17.50
2014,04,14,16,06,17.50
2014,04,14,16,07,17.40
2014,04,14,16,08,17.40
2014,04,14,16,09,17.40
2014,04,14,16,10,17.50
2014,04,14,16,11,17.50
2014,04,14,16,12,17.50
2014,04,14,16,13,17.60
2014,04,14,16,14,17.60
2014,04,14,16,15,17.60
2014,04,14,16,16,17.60
2014,04,14,16,17,17.50
2014,04,14,16,18,17.50
2014,04,14,16,19,17.40
2014,04,14,16,20,17.40
2014,04,14,16,21,17.40
2014,04,14,16,22,17.40
2014,04,14,16,23,17.40
2014,04,14,16,24,17.30
2014,04,14,16,25,17.30
2014,04,14,16,26,17.30
2014,04,14,16,27,17.30
2014,04,14,16,28,17.30
2014,04,14,16,29,17.20
2014,04,14,16,30,17.30
2014,04,14,16,31,17.30
2014,04,14,16,32,17.30
2014,04,14,16,33,17.30
2014,04,14,16,34,17.40
2014,04,14,16,35,17.40
2014,04,14,16,36,17.50
2014,04,14,16,37,17.50
2014,04,14,16,38,17.60
2014,04,14,16,39,17.60
2014,04,14,16,40,17.60
2014,04,14,16,41,17.60
2014,04,14,16,42,17.60
2014,04,14,16,43,17.60
2014,04,14,16,44,17.50
2014,04,14,16,45,17.40
2014,04,14,16,46,17.40
2014,04,14,16,47,17.30
2014,04,14,16,48,17.30
2014,04,14,16,49,17.20
2014,04,14,16,50,17.20
2014,04,14,16,51,17.10
2014,04,14,16,52,17.10
2014,04,14,16,53,17.00
2014,04,14,16,54,17.00
2014,04,14,16,55,16.90
2014,04,14,16,56,16.80
2014,04,14,16,57,16.80
2014,04,14,16,58,16.70
2014,04,14,16,59,16.70
2014,04,14,17,00,16.60
2014,04,14,17,01,16.60
2014,04,14,17,02,16.60
2014,04,14,17,03,16.60
2014,04,14,17,04,16.60
2014,04,14,17,05,16.50
2014,04,14,17,06,16.50
2014,04,14,17,07,16.40
2014,04,14,17,08,16.40
2014,04,14,17,09,16.40
2014,04,14,17,10,16.40
2014,04,14,17,11,16.50
2014,04,14,17,12,16.50
2014,04,14,17,13,16.50
2014,04,14,17,14,16.60
2014,04,14,17,15,16.60
2014,04,14,17,16,16.60
2014,04,14,17,17,16.60
2014,04,14,17,18,16.60
2014,04,14,17,19,16.60
2014,04,14,17,20,16.60
2014,04,14,17,21,16.60
2014,04,14,17,22,16.60
2014,04,14,17,23,16.60
2014,04,14,17,24,16.60
2014,04,14,17,25,16.50
2014,04,14,17,26,16.50
2014,04,14,17,27,16.50
2014,04,14,17,28,16.40
2014,04,14,17,29,16.40
2014,04,14,17,30,16.40
2014,04,14,17,31,16.30
2014,04,14,17,32,16.30
2014,04,14,17,33,16.20
2014,04,14,17,34,16.20
2014,04,14,17,35,16.10
2014,04,14,17,36,16.10
2014,04,14,17,37,16.10
2014,04,14,17,38,16.10
2014,04,14,17,39,16.10
2014,04,14,17,40,16.00
2014,04,14,17,41,16.00
2014,04,14,17,42,16.00
2014,04,14,17,43,16.00
2014,04,14,17,44,15.90
2014,04,14,17,45,15.90
2014,04,14,17,46,15.90
2014,04,14,17,47,15.90
2014,04,14,17,48,15.80
2014,04,14,17,49,15.90
2014,04,14,17,50,15.90